When you browse on this site, cookies collect data to enhance your experience and personalize the content and advertising you see.
Visit our Privacy Policy to learn more. By continuing to use the site, you agree to this use of cookies and data.
  • In Deutschland
  • Länderverzeichnis
  • Für 7 Tage
  • Wassertemperatur
  • Wetterkarte
  • Widgets
  • user-avatar
    Anmelden

    Stündliche Wetter Kandahar

    Heute, 23 September, Montag

    Zeit Temperatur Niederschläge Wind Luftdruck Luftfeuchtigkeit
    00:00 +23°C° 0 mm 1 m/S 672 mmHg 11%
    01:00 +21°C° 0 mm 0 m/S 672 mmHg 12%
    02:00 +20°C° 0 mm 0 m/S 672 mmHg 13%
    03:00 +20°C° 0 mm 0 m/S 672 mmHg 14%
    04:00 +21°C° 0 mm 1 m/S 672 mmHg 15%
    05:00 +24°C° 0 mm 1 m/S 673 mmHg 12%
    06:00 +27°C° 0 mm 1 m/S 675 mmHg 10%
    07:00 +29°C° 0 mm 1 m/S 676 mmHg 8%
    08:00 +32°C° 0 mm 1 m/S 676 mmHg 7%
    09:00 +34°C° 0 mm 1 m/S 677 mmHg 6%
    10:00 +36°C° 0 mm 1 m/S 677 mmHg 5%
    11:00 +37°C° 0 mm 1 m/S 677 mmHg 5%
    12:00 +39°C° 0 mm 2 m/S 676 mmHg 4%
    13:00 +40°C° 0 mm 3 m/S 676 mmHg 4%
    14:00 +41°C° 0 mm 4 m/S 676 mmHg 4%
    15:00 +41°C° 0 mm 5 m/S 675 mmHg 4%
    16:00 +41°C° 0 mm 6 m/S 675 mmHg 4%
    17:00 +37°C° 0 mm 5 m/S 675 mmHg 5%
    18:00 +34°C° 0 mm 5 m/S 675 mmHg 7%
    19:00 +30°C° 0 mm 4 m/S 675 mmHg 8%
    20:00 +28°C° 0 mm 3 m/S 674 mmHg 11%
    21:00 +27°C° 0 mm 3 m/S 674 mmHg 13%
    22:00 +25°C° 0 mm 2 m/S 674 mmHg 16%
    23:00 +24°C° 0 mm 1 m/S 674 mmHg 17%

    Morgen, 24 September, Dienstag

    Zeit Temperatur Niederschläge Wind Luftdruck Luftfeuchtigkeit
    00:00 +23°C° 0 mm 1 m/S 673 mmHg 19%
    01:00 +22°C° 0 mm 1 m/S 673 mmHg 20%
    02:00 +21°C° 0 mm 1 m/S 673 mmHg 21%
    03:00 +19°C° 0 mm 0 m/S 673 mmHg 23%
    04:00 +18°C° 0 mm 0 m/S 673 mmHg 24%
    05:00 +20°C° 0 mm 0 m/S 674 mmHg 21%
    06:00 +23°C° 0 mm 0 m/S 675 mmHg 18%
    07:00 +25°C° 0 mm 0 m/S 676 mmHg 15%
    08:00 +27°C° 0 mm 0 m/S 676 mmHg 13%
    09:00 +31°C° 0 mm 1 m/S 677 mmHg 11%
    10:00 +34°C° 0 mm 1 m/S 677 mmHg 10%
    11:00 +36°C° 0 mm 2 m/S 676 mmHg 9%
    12:00 +38°C° 0 mm 3 m/S 676 mmHg 7%
    13:00 +39°C° 0 mm 3 m/S 676 mmHg 6%
    14:00 +40°C° 0 mm 4 m/S 675 mmHg 6%
    15:00 +40°C° 0 mm 4 m/S 675 mmHg 6%
    16:00 +40°C° 0 mm 5 m/S 675 mmHg 6%
    17:00 +36°C° 0 mm 4 m/S 674 mmHg 7%
    18:00 +34°C° 0 mm 4 m/S 674 mmHg 9%
    19:00 +30°C° 0 mm 4 m/S 674 mmHg 11%
    20:00 +28°C° 0 mm 3 m/S 674 mmHg 12%
    21:00 +26°C° 0 mm 2 m/S 674 mmHg 14%
    22:00 +25°C° 0 mm 1 m/S 673 mmHg 15%
    23:00 +24°C° 0 mm 1 m/S 673 mmHg 16%

    übermorgen, 25 September, Mittwoch

    Zeit Temperatur Niederschläge Wind Luftdruck Luftfeuchtigkeit
    00:00 +24°C° 0 mm 1 m/S 673 mmHg 16%
    01:00 +23°C° 0 mm 1 m/S 672 mmHg 17%
    02:00 +22°C° 0 mm 1 m/S 673 mmHg 17%
    03:00 +22°C° 0 mm 1 m/S 673 mmHg 18%
    04:00 +22°C° 0 mm 1 m/S 673 mmHg 18%
    05:00 +24°C° 0 mm 1 m/S 674 mmHg 16%
    06:00 +27°C° 0 mm 1 m/S 675 mmHg 14%
    07:00 +29°C° 0 mm 1 m/S 676 mmHg 11%
    08:00 +31°C° 0 mm 1 m/S 677 mmHg 10%
    09:00 +33°C° 0 mm 1 m/S 677 mmHg 9%
    10:00 +35°C° 0 mm 1 m/S 677 mmHg 8%
    11:00 +37°C° 0 mm 1 m/S 677 mmHg 7%
    12:00 +39°C° 0 mm 2 m/S 677 mmHg 7%
    13:00 +40°C° 0 mm 2 m/S 677 mmHg 6%
    14:00 +40°C° 0 mm 3 m/S 676 mmHg 6%
    15:00 +40°C° 0 mm 3 m/S 676 mmHg 6%
    16:00 +41°C° 0 mm 4 m/S 676 mmHg 6%
    17:00 +37°C° 0 mm 3 m/S 675 mmHg 7%
    18:00 +34°C° 0 mm 3 m/S 675 mmHg 8%
    19:00 +30°C° 0 mm 3 m/S 675 mmHg 10%
    20:00 +29°C° 0 mm 3 m/S 675 mmHg 11%
    21:00 +28°C° 0 mm 2 m/S 675 mmHg 12%
    22:00 +27°C° 0 mm 2 m/S 675 mmHg 12%
    23:00 +26°C° 0 mm 1 m/S 675 mmHg 13%

    26 September, Donnerstag

    Zeit Temperatur Niederschläge Wind Luftdruck Luftfeuchtigkeit
    00:00 +25°C° 0 mm 1 m/S 674 mmHg 14%
    01:00 +24°C° 0 mm 1 m/S 674 mmHg 15%
    02:00 +23°C° 0 mm 1 m/S 674 mmHg 15%
    03:00 +23°C° 0 mm 1 m/S 674 mmHg 16%
    04:00 +22°C° 0 mm 1 m/S 674 mmHg 17%
    05:00 +24°C° 0 mm 1 m/S 675 mmHg 16%
    06:00 +27°C° 0 mm 1 m/S 676 mmHg 15%
    07:00 +29°C° 0 mm 1 m/S 677 mmHg 15%
    08:00 +31°C° 0 mm 2 m/S 678 mmHg 15%
    09:00 +34°C° 0 mm 2 m/S 678 mmHg 16%
    10:00 +36°C° 0 mm 2 m/S 678 mmHg 17%
    11:00 +37°C° 0 mm 2 m/S 678 mmHg 14%
    12:00 +38°C° 0 mm 2 m/S 677 mmHg 12%
    13:00 +40°C° 0 mm 1 m/S 677 mmHg 10%
    14:00 +40°C° 0 mm 2 m/S 677 mmHg 9%
    15:00 +40°C° 0 mm 2 m/S 676 mmHg 9%
    16:00 +40°C° 0 mm 3 m/S 676 mmHg 8%
    17:00 +37°C° 0 mm 2 m/S 675 mmHg 9%
    18:00 +32°C° 0 mm 2 m/S 675 mmHg 10%
    19:00 +29°C° 0 mm 2 m/S 674 mmHg 11%
    20:00 +28°C° 0 mm 2 m/S 674 mmHg 12%
    21:00 +27°C° 0 mm 2 m/S 674 mmHg 12%
    22:00 +26°C° 0 mm 1 m/S 674 mmHg 13%
    23:00 +25°C° 0 mm 1 m/S 674 mmHg 14%

    27 September, Freitag

    Zeit Temperatur Niederschläge Wind Luftdruck Luftfeuchtigkeit
    00:00 +24°C° 0 mm 1 m/S 674 mmHg 15%
    01:00 +23°C° 0 mm 1 m/S 674 mmHg 15%
    02:00 +23°C° 0 mm 1 m/S 674 mmHg 16%
    03:00 +22°C° 0 mm 1 m/S 674 mmHg 16%
    04:00 +20°C° 0 mm 0 m/S 674 mmHg 17%
    05:00 +24°C° 0 mm 1 m/S 675 mmHg 15%
    06:00 +26°C° 0 mm 1 m/S 676 mmHg 13%
    07:00 +29°C° 0 mm 1 m/S 677 mmHg 11%
    08:00 +31°C° 0 mm 1 m/S 677 mmHg 10%
    09:00 +33°C° 0 mm 1 m/S 677 mmHg 9%
    10:00 +35°C° 0 mm 1 m/S 677 mmHg 8%
    11:00 +37°C° 0 mm 2 m/S 677 mmHg 7%
    12:00 +38°C° 0 mm 2 m/S 676 mmHg 6%
    13:00 +40°C° 0 mm 2 m/S 676 mmHg 6%
    14:00 +40°C° 0 mm 3 m/S 675 mmHg 5%
    15:00 +40°C° 0 mm 3 m/S 675 mmHg 5%
    16:00 +41°C° 0 mm 4 m/S 674 mmHg 5%
    17:00 +37°C° 0 mm 4 m/S 674 mmHg 6%
    18:00 +34°C° 0 mm 3 m/S 673 mmHg 8%
    19:00 +30°C° 0 mm 3 m/S 673 mmHg 9%
    20:00 +28°C° 0 mm 2 m/S 673 mmHg 10%
    21:00 +27°C° 0 mm 1 m/S 672 mmHg 11%
    22:00 +25°C° 0 mm 1 m/S 672 mmHg 12%
    23:00 +24°C° 0 mm 1 m/S 672 mmHg 12%

    28 September, Samstag

    Zeit Temperatur Niederschläge Wind Luftdruck Luftfeuchtigkeit
    00:00 +24°C° 0 mm 1 m/S 672 mmHg 13%
    01:00 +21°C° 0 mm 0 m/S 671 mmHg 13%
    02:00 +23°C° 0 mm 1 m/S 671 mmHg 14%
    03:00 +22°C° 0 mm 1 m/S 671 mmHg 14%
    04:00 +22°C° 0 mm 1 m/S 671 mmHg 14%
    05:00 +24°C° 0 mm 1 m/S 672 mmHg 13%
    06:00 +26°C° 0 mm 1 m/S 673 mmHg 11%
    07:00 +28°C° 0 mm 1 m/S 674 mmHg 10%
    08:00 +30°C° 0 mm 1 m/S 674 mmHg 9%
    09:00 +33°C° 0 mm 1 m/S 674 mmHg 8%
    10:00 +35°C° 0 mm 1 m/S 674 mmHg 7%
    11:00 +36°C° 0 mm 1 m/S 674 mmHg 6%
    12:00 +37°C° 0 mm 1 m/S 674 mmHg 6%
    13:00 +40°C° 0 mm 1 m/S 673 mmHg 5%
    14:00 +40°C° 0 mm 2 m/S 673 mmHg 5%
    15:00 +40°C° 0 mm 3 m/S 673 mmHg 5%
    16:00 +40°C° 0 mm 3 m/S 672 mmHg 5%
    17:00 +37°C° 0 mm 3 m/S 672 mmHg 6%
    18:00 +33°C° 0 mm 3 m/S 671 mmHg 7%
    19:00 +29°C° 0 mm 2 m/S 671 mmHg 8%
    20:00 +28°C° 0 mm 2 m/S 671 mmHg 9%
    21:00 +26°C° 0 mm 1 m/S 671 mmHg 10%
    22:00 +25°C° 0 mm 1 m/S 671 mmHg 10%
    23:00 +24°C° 0 mm 1 m/S 670 mmHg 11%
    Mehr zeigen